Flag for U.S.A. Weather past 2 weeks in Portsmouth, Virginia, U.S.A.

Now
81 °F

Scattered clouds.


Feels Like: 85 °F
Forecast: 73 / 83 °F
Wind: 8 mph from East

Location: Norfolk Naval Air Station

Current Time: Jul 24, 2014 at 5:27:22 PM

Latest Report: Jul 24, 2014 at 4:59 PM


Visibility: 8 mi

Pressure: 29.87 "Hg

Humidity: 74%

Dew point: 72 °F

Location of PortsmouthLocation

Historic Weather in Portsmouth — Graph

°F

Portsmouth temperature yesterday

Maximum temperature yesterday: 91 °F (at 3:59 PM)
Minimum temperature yesterday: 76 °F (at 12:59 AM)
Average temperature yesterday: 83 °F

Past Weeks' High & Low Weather Summary

 TemperatureHumidityPressure
High93 °F (Jul 14, 2:59 PM)93% (Jul 9, 8:59 PM)30.24 "Hg (Jul 9, 8:59 PM)
Low69 °F (Jul 18, 1:59 AM)38% (Jul 13, 4:59 PM)29.75 "Hg (Jul 15, 5:59 PM)
Average78 °F74%30.05 "Hg
* Reported Jul 9 3:59 PM — Jul 24 3:59 PM, Portsmouth, Weather by CustomWeather, © 2014

Note: Actual official high and low records may vary slightly from our data, if they occured in-between our weather recording intervals... More about our weather records

Advertising

Portsmouth weather history for previous 24 hours

 ConditionsComfort  
Time TempWeatherWind HumidityBarometerVisibility
3:59 PM
Jul 24
83 °FScattered clouds.10 mph70%29.87 "Hg10 mi
2:59 PM83 °FFog.9 mph72%29.88 "Hg6 mi
1:59 PM79 °FFog.6 mph82%29.88 "Hg6 mi
12:59 PM79 °FFog.No wind82%29.88 "Hg6 mi
11:59 AM78 °FLight rain. More clouds than sun.5 mph84%29.90 "Hg6 mi
10:59 AM76 °FLight rain. Fog.7 mph88%29.89 "Hg6 mi
9:59 AM75 °FThunderstorms. Fog.15 mph88%29.90 "Hg4 mi
8:59 AM81 °FPartly sunny.12 mph77%29.87 "Hg9 mi
7:59 AM80 °FBroken clouds.6 mph81%29.86 "Hg9 mi
6:59 AM79 °FPartly cloudy.6 mph84%29.86 "Hg9 mi
5:59 AM79 °FPassing clouds.6 mph84%29.85 "Hg10 mi
4:59 AM79 °FPassing clouds.5 mph84%29.85 "Hg10 mi
3:59 AM79 °FRain. Partly cloudy.6 mph84%29.85 "Hg4 mi
2:59 AM80 °FPartly cloudy.7 mph81%29.86 "Hg10 mi
1:59 AM80 °FPartly cloudy.9 mph81%29.87 "Hg10 mi
12:59 AM81 °FPassing clouds.9 mph79%29.88 "Hg10 mi
11:59 PM
Jul 23
82 °FPartly cloudy.9 mph77%29.89 "Hg10 mi
10:59 PM83 °FPassing clouds.9 mph77%29.88 "Hg10 mi
9:59 PM85 °FPassing clouds.8 mph70%29.90 "Hg10 mi
8:59 PM86 °FScattered clouds.6 mph67%29.90 "Hg10 mi
7:59 PM87 °FScattered clouds.9 mph63%29.88 "Hg10 mi
6:59 PM89 °FScattered clouds.10 mph57%29.88 "Hg10 mi
5:59 PM90 °FScattered clouds.7 mph56%29.88 "Hg10 mi
Weather by CustomWeather, © 2014

See weather overviewHow to use our weather pages